Time,TemperatureF,DewpointF,PressureIn,WindDirection,WindDirectionDegrees,WindSpeedMPH,WindSpeedGustMPH,Humidity,HourlyPrecipIn,Conditions,Clouds,dailyrainin,SoftwareType,DateUTC
2013-10-01 15:42:00,50.0,47.0,-100.00,SSE,155,1.0,1.0,92,0.02,,,0.08,,2013-10-01 23:42:00,
2013-10-01 15:52:00,50.0,47.0,-100.00,SSE,165,1.0,2.0,92,0.02,,,0.10,,2013-10-01 23:52:00,
2013-10-01 16:02:00,50.0,47.0,-100.00,SSE,165,1.0,2.0,92,0.02,,,0.10,,2013-10-02 00:02:00,
2013-10-01 16:12:00,50.0,47.0,-100.00,SSE,165,1.0,2.0,92,0.02,,,0.10,,2013-10-02 00:12:00,
2013-10-01 16:21:00,50.0,47.0,-100.00,South,175,2.0,3.0,89,0.02,,,0.10,,2013-10-02 00:21:00,
2013-10-01 16:32:00,50.0,47.0,-100.00,South,175,2.0,3.0,89,0.02,,,0.10,,2013-10-02 00:32:00,
2013-10-01 16:42:00,50.0,47.0,-100.00,South,175,2.0,3.0,89,0.02,,,0.10,,2013-10-02 00:42:00,
2013-10-01 16:52:00,50.0,47.0,-100.00,South,185,1.0,2.0,88,0.02,,,0.12,,2013-10-02 00:52:00,
2013-10-01 17:01:00,50.0,47.0,-100.00,South,185,1.0,2.0,88,0.02,,,0.12,,2013-10-02 01:01:00,
2013-10-01 17:12:00,50.0,47.0,-100.00,South,185,1.0,2.0,88,0.02,,,0.12,,2013-10-02 01:12:00,
2013-10-01 17:21:00,50.0,46.0,-100.00,SSE,160,1.0,2.0,88,0.02,,,0.12,,2013-10-02 01:21:00,
2013-10-01 17:31:00,50.0,46.0,-100.00,SSE,160,1.0,2.0,88,0.02,,,0.12,,2013-10-02 01:31:00,
2013-10-01 17:42:00,50.0,46.0,-100.00,SSE,160,1.0,2.0,88,0.02,,,0.12,,2013-10-02 01:42:00,
2013-10-01 17:52:00,49.0,45.0,-100.00,ESE,115,0.0,6.0,88,0.02,,,0.14,,2013-10-02 01:52:00,
2013-10-01 18:02:00,49.0,45.0,-100.00,ESE,115,0.0,6.0,88,0.02,,,0.14,,2013-10-02 02:02:00,
2013-10-01 18:11:00,49.0,45.0,-100.00,ESE,115,0.0,6.0,88,0.02,,,0.14,,2013-10-02 02:11:00,
2013-10-01 18:22:00,49.0,45.0,-100.00,ESE,105,4.0,6.0,87,0.02,,,0.14,,2013-10-02 02:22:00,
2013-10-01 18:32:00,49.0,45.0,-100.00,ESE,105,4.0,6.0,87,0.02,,,0.14,,2013-10-02 02:32:00,
2013-10-01 18:42:00,49.0,45.0,-100.00,ESE,105,4.0,6.0,87,0.02,,,0.14,,2013-10-02 02:42:00,
2013-10-01 18:52:00,48.0,45.0,-100.00,ESE,115,1.0,5.0,89,0.01,,,0.15,,2013-10-02 02:52:00,
2013-10-01 19:02:00,48.0,45.0,-100.00,ESE,115,1.0,5.0,89,0.01,,,0.15,,2013-10-02 03:02:00,
2013-10-01 19:12:00,48.0,45.0,-100.00,ESE,115,1.0,5.0,89,0.01,,,0.15,,2013-10-02 03:12:00,
2013-10-01 19:22:00,47.0,45.0,-100.00,SE,125,0.0,4.0,91,0.01,,,0.15,,2013-10-02 03:22:00,
2013-10-01 19:34:00,47.0,45.0,-100.00,SE,125,0.0,4.0,91,0.01,,,0.15,,2013-10-02 03:34:00,
2013-10-01 19:44:00,47.0,45.0,-100.00,SE,125,0.0,4.0,91,0.01,,,0.15,,2013-10-02 03:44:00,
2013-10-01 19:54:00,47.0,45.0,-100.00,ESE,120,0.0,1.0,93,0.02,,,0.17,,2013-10-02 03:54:00,
2013-10-01 20:05:00,47.0,45.0,-100.00,ESE,120,0.0,1.0,93,0.02,,,0.17,,2013-10-02 04:05:00,
2013-10-01 20:13:00,47.0,45.0,-100.00,ESE,120,0.0,1.0,93,0.02,,,0.17,,2013-10-02 04:13:00,
2013-10-01 20:24:00,46.0,44.0,-100.00,NE,45,0.0,1.0,95,0.02,,,0.17,,2013-10-02 04:24:00,
2013-10-01 20:34:00,46.0,44.0,-100.00,NE,45,0.0,1.0,95,0.02,,,0.17,,2013-10-02 04:34:00,
2013-10-01 20:44:00,46.0,44.0,-100.00,NE,45,0.0,1.0,95,0.02,,,0.17,,2013-10-02 04:44:00,
2013-10-01 20:53:00,45.0,44.0,-100.00,West,280,0.0,2.0,95,0.02,,,0.19,,2013-10-02 04:53:00,
2013-10-01 21:04:00,45.0,44.0,-100.00,West,280,0.0,2.0,95,0.02,,,0.19,,2013-10-02 05:04:00,
2013-10-01 21:13:00,45.0,44.0,-100.00,West,280,0.0,2.0,95,0.02,,,0.19,,2013-10-02 05:13:00,
2013-10-01 21:22:00,45.0,44.0,-100.00,NW,310,0.0,0.0,96,0.02,,,0.19,,2013-10-02 05:22:00,
2013-10-01 21:33:00,45.0,44.0,-100.00,NW,310,0.0,0.0,96,0.02,,,0.19,,2013-10-02 05:33:00,
2013-10-01 21:42:00,45.0,44.0,-100.00,NW,310,0.0,0.0,96,0.02,,,0.19,,2013-10-02 05:42:00,
2013-10-01 21:53:00,45.0,44.0,-100.00,SW,230,0.0,0.0,96,0.00,,,0.19,,2013-10-02 05:53:00,
2013-10-01 22:03:00,45.0,44.0,-100.00,SW,230,0.0,0.0,96,0.00,,,0.19,,2013-10-02 06:03:00,
2013-10-01 22:12:00,45.0,44.0,-100.00,SW,230,0.0,0.0,96,0.00,,,0.19,,2013-10-02 06:12:00,
2013-10-01 22:21:00,45.0,44.0,-100.00,North,0,0.0,0.0,96,0.00,,,0.19,,2013-10-02 06:21:00,
2013-10-01 22:32:00,45.0,44.0,-100.00,North,0,0.0,0.0,96,0.00,,,0.19,,2013-10-02 06:32:00,
2013-10-01 22:42:00,45.0,44.0,-100.00,North,0,0.0,0.0,96,0.00,,,0.19,,2013-10-02 06:42:00,
2013-10-01 22:52:00,44.0,43.0,-100.00,NNE,20,0.0,0.0,96,0.00,,,0.19,,2013-10-02 06:52:00,
2013-10-01 23:01:00,44.0,43.0,-100.00,NNE,20,0.0,0.0,96,0.00,,,0.19,,2013-10-02 07:01:00,
2013-10-01 23:11:00,44.0,43.0,-100.00,NNE,20,0.0,0.0,96,0.00,,,0.19,,2013-10-02 07:11:00,
2013-10-01 23:21:00,44.0,43.0,-100.00,NNE,20,0.0,0.0,96,0.00,,,0.19,,2013-10-02 07:21:00,
2013-10-01 23:32:00,44.0,43.0,-100.00,NNE,20,0.0,0.0,96,0.00,,,0.19,,2013-10-02 07:32:00,
2013-10-01 23:42:00,44.0,43.0,-100.00,NNE,20,0.0,0.0,96,0.00,,,0.19,,2013-10-02 07:42:00,
2013-10-01 23:52:00,44.0,43.0,-100.00,NNE,30,0.0,1.0,96,0.00,,,0.19,,2013-10-02 07:52:00,